ANZ5 KLAX-NZAA

Flight info

Callsign ANZ5
Flight time N/A
Altitude 30000
Route SUMMR2 FICKY B577 LENNA DCT 29N125W 25N130W/N0500F300 20N134W 15N138W 10N142W 05N146W/N0506F320 00N151W 05S155W 10S157W/N0497F340 15S161W DCT GODAB DCT 20S166W 25S171W 30S176W/N0482F360 35S180E DCT OLBEX
Aircraft B77W/H-SDE1E2E3FGHIJ2J3J4J5M1RWXY/LB1D1

Departure

Time 2026-05-06 05:45
Airport Los Angeles International Airport (KLAX)

Arrival

Time N/A
Airport Auckland International Airport (NZAA)
Time Latitude Longitude Altitude Speed Heading
2026-05-06 04:54 33.94476 -118.40991 99 ft 0 kts 261°
2026-05-06 05:29 33.94478 -118.40976 101 ft 4 kts 261°
2026-05-06 05:29 33.94481 -118.40951 99 ft 4 kts 260°
2026-05-06 05:29 33.94486 -118.40919 98 ft 4 kts 273°
2026-05-06 05:30 33.94482 -118.40901 98 ft 1 kts 304°
2026-05-06 05:30 33.94499 -118.40912 99 ft 4 kts 346°
2026-05-06 05:30 33.94526 -118.40915 100 ft 4 kts 354°
2026-05-06 05:30 33.94531 -118.40915 100 ft 2 kts 354°
2026-05-06 05:34 33.94536 -118.40916 100 ft 2 kts 355°
2026-05-06 05:35 33.94565 -118.40908 101 ft 6 kts 15°
2026-05-06 05:35 33.94623 -118.40901 101 ft 10 kts 356°
2026-05-06 05:35 33.94701 -118.40911 101 ft 11 kts 355°
2026-05-06 05:35 33.94742 -118.40900 102 ft 2 kts 25°
2026-05-06 05:36 33.94778 -118.40888 103 ft 6 kts 11°
2026-05-06 05:36 33.94819 -118.40865 105 ft 8 kts 40°
2026-05-06 05:36 33.94843 -118.40786 105 ft 12 kts 82°
2026-05-06 05:36 33.94854 -118.40689 105 ft 12 kts 82°
2026-05-06 05:37 33.94864 -118.40591 106 ft 12 kts 83°
2026-05-06 05:37 33.94874 -118.40493 107 ft 12 kts 83°
2026-05-06 05:37 33.94884 -118.40395 104 ft 12 kts 83°
2026-05-06 05:37 33.94895 -118.40296 105 ft 12 kts 83°
2026-05-06 05:38 33.94904 -118.40198 107 ft 12 kts 83°
2026-05-06 05:38 33.94914 -118.40099 106 ft 12 kts 83°
2026-05-06 05:38 33.94924 -118.40001 104 ft 12 kts 83°
2026-05-06 05:38 33.94948 -118.39938 108 ft 0 kts 42°
2026-05-06 05:44 33.94949 -118.39937 108 ft 2 kts 42°
2026-05-06 05:44 33.94971 -118.39923 109 ft 5 kts 20°
2026-05-06 05:44 33.95013 -118.39926 112 ft 10 kts 336°
2026-05-06 05:44 33.95034 -118.40016 110 ft 15 kts 265°
2026-05-06 05:45 33.95007 -118.40290 112 ft 64 kts 263°
2026-05-06 05:45 33.94917 -118.41149 110 ft 141 kts 263°
2026-05-06 05:45 33.94766 -118.42607 194 ft 200 kts 263°
2026-05-06 05:45 33.94592 -118.44260 1065 ft 199 kts 262°
2026-05-06 05:46 33.94394 -118.45942 1958 ft 204 kts 262°
2026-05-06 05:46 33.94063 -118.47561 2358 ft 204 kts 240°
2026-05-06 05:46 33.93114 -118.48857 2466 ft 210 kts 221°
2026-05-06 05:46 33.92012 -118.50028 2805 ft 210 kts 221°
2026-05-06 05:47 33.90931 -118.51175 3257 ft 206 kts 221°
2026-05-06 05:47 33.89862 -118.52300 3664 ft 201 kts 221°
2026-05-06 05:47 33.88813 -118.53397 3995 ft 201 kts 221°
2026-05-06 05:47 33.87744 -118.54514 4213 ft 204 kts 221°
2026-05-06 05:48 33.86665 -118.55640 4440 ft 208 kts 221°
2026-05-06 05:48 33.85569 -118.56783 4647 ft 214 kts 221°
2026-05-06 05:48 33.84424 -118.57976 4858 ft 221 kts 221°
2026-05-06 05:48 33.83243 -118.59208 5066 ft 229 kts 221°
2026-05-06 05:49 33.82010 -118.60492 5275 ft 239 kts 221°
2026-05-06 05:49 33.80734 -118.61817 5567 ft 245 kts 221°
2026-05-06 05:49 33.79434 -118.63167 5876 ft 248 kts 221°
2026-05-06 05:49 33.78118 -118.64532 6042 ft 250 kts 221°
2026-05-06 05:50 33.76790 -118.65910 6369 ft 253 kts 221°
2026-05-06 05:50 33.75436 -118.67315 6590 ft 265 kts 221°
2026-05-06 05:50 33.74015 -118.68791 6755 ft 279 kts 221°
2026-05-06 05:50 33.72527 -118.70343 7108 ft 287 kts 221°
2026-05-06 05:51 33.71010 -118.71930 7524 ft 292 kts 221°